Location: Unnamed
(51.5169°N, 0.1311°W)
Time: 14:32:26
(UTC+01:00)

Vanguard 1 - Pass Details

Date: 18 August 2024
Orbit: 649 x 3825 km, 34.2° (Epoch: 18 September)

Event Time Altitude Azimuth Distance (km) Brightness Sun altitude
Rises 21:29:39 0° 213° (SSW) 3,528 12.9 -10.8°
Reaches altitude 10° 21:32:37 10° 194° (SSW) 2,896 12.2 -11.2°
Maximum altitude 21:37:27 19° 151° (SSE) 2,803 11.8 -11.8°
Enters shadow 21:41:47 14° 121° (ESE) 3,631 12.3 -12.3°
